[[{"header":{"parameterUnit":"m.s-1","parameterCategory":2,"la1":30.2991,"la2":30.254,"lo1":-89.0895,"lo2":-89.0444,"dy":0.0017,"dx":0.0017,"nx":28,"ny":28,"refTime":"2024-10-12T09:00:00:Z","depth":"0","parameterNumber":2,"parameterNumberName":"U-component_of_CURRENTS"},"data":[0,0,0,0,0,0,0,0,0,0,0,0,0,0,0,0,0,0,0,0,0,0,0,0,0,0,0,0,0,0,0,0,0,0,0,0,0,0,0,0,0,0,0,0,0,0,0,0,0,0,0,0,0,0,0,0,0,0,0.2308,0.2308,0,0.2269,0.2269,0.2268,0.2237,0.2237,0.2237,0.2237,0.2144,0.2142,0.2139,0,0,0,0,0,0,0,0,0,0,0,0,0,0.231,0.231,0.2308,0.2308,0.2308,0.2269,0.2269,0.2268,0.2237,0.2237,0.2237,0.2237,0.2145,0.2142,0.2139,0,0,0,0,0,0,0,0,0,0,0,0,0,0.2291,0.231,0.2308,0.229,0.2288,0.227,0.2269,0.2268,0.2238,0.2237,0.2237,0.2237,0.2146,0.2142,0.2139,0.2117,0,0,0.2127,0.2126,0,0,0,0,0,0,0,0,0.2292,0.2291,0.2293,0.2291,0.2289,0.2261,0.2235,0.2215,0.2238,0.2254,0.2237,0.2237,0.218,0.2174,0.2163,0.2112,0.2108,0.2127,0.2125,0.2123,0.2122,0,0,0,0,0,0,0,0.2294,0.2292,0.229,0.2293,0.2291,0.2268,0.2266,0.2231,0.2214,0.2252,0.2251,0.2251,0.2178,0.2167,0.216,0.2107,0.2127,0.2124,0.2122,0.212,0.2085,0.2086,0,0,0,0,0,0,0.2307,0.2294,0.2291,0.2289,0.2294,0.2269,0.2266,0.2268,0.2216,0.2209,0.2251,0.225,0.2173,0.2165,0.2157,0.2182,0.2123,0.212,0.2118,0.2084,0.2086,0.2087,0,0,0,0,0,0,0.2307,0.2307,0.2293,0.2292,0.229,0.227,0.2271,0.2267,0.2262,0.2216,0.2208,0.2253,0.2172,0.2162,0.215,0.2176,0.2118,0.2115,0.2082,0.2084,0.2086,0.2198,0,0,0,0,0,0,0.2307,0.2308,0.2312,0.2294,0.229,0.2298,0.2272,0.2266,0.2264,0.2262,0.2214,0.2205,0.2172,0.2156,0.2147,0.217,0.2112,0.2081,0.2083,0.2086,0.2193,0.2204,0.2213,0,0,0,0,0,0.2308,0.2316,0.2313,0.2312,0.2298,0.2299,0.2295,0.2278,0.2264,0.2271,0.2246,0.2207,0.2165,0.2154,0.2143,0.2166,0.208,0.2083,0.2085,0.2188,0.2202,0.2213,0,0,0,0,0,0,0.2312,0.2313,0.2309,0.2315,0.2316,0.2295,0.2297,0.2285,0.2269,0.2265,0.222,0.221,0.2209,0.2172,0.2162,0.2164,0.2117,0.2117,0.2199,0.2211,0.2221,0.2226,0.2109,0,0,0,0,0,0.2318,0.2327,0.2325,0.2329,0.2333,0.2316,0.2313,0.2305,0.229,0.2283,0.2255,0.2226,0.221,0.2199,0.2174,0.217,0.217,0.2179,0.2189,0.2198,0.2195,0.2231,0.2245,0.2096,0.2096,0.2096,0,0,0.2316,0.2322,0.2323,0.2331,0.2326,0.2335,0.2314,0.2318,0.2324,0.2274,0.2273,0.2256,0.2217,0.2223,0.2219,0.2196,0.2247,0.2201,0.2209,0.2201,0.2236,0.225,0.2263,0.2098,0.2098,0.2098,0,0,0.2321,0.2329,0.2338,0.2348,0.2356,0.2352,0.2359,0.2351,0.235,0.235,0.2325,0.2334,0.229,0.2289,0.2276,0.2324,0.2299,0.2311,0.2365,0.2402,0.2415,0.2426,0.2481,0.2496,0.2317,0.2317,0.2317,0,0.2315,0.2331,0.234,0.2357,0.2366,0.2364,0.2377,0.2378,0.2369,0.2376,0.2362,0.2349,0.2324,0.2344,0.2368,0.2348,0.2367,0.2326,0.2418,0.2428,0.2438,0.2491,0.2506,0.2323,0.2322,0.2322,0.2321,0,0.2329,0.2344,0.2354,0.2375,0.2391,0.2403,0.2416,0.243,0.2428,0.2429,0.2452,0.2438,0.2431,0.2437,0.2414,0.2471,0.2466,0.243,0.2392,0.246,0.2511,0.2525,0.2331,0.2329,0.2328,0.2326,0,0,0.2294,0.2349,0.2351,0.2366,0.2403,0.241,0.2445,0.2468,0.2486,0.2498,0.2526,0.2533,0.2535,0.2522,0.2512,0.255,0.2654,0.2524,0.2524,0.2588,0.2758,0.2817,0.2838,0.2637,0.2639,0.2641,0.2781,0,0.2293,0.2328,0.2362,0.2389,0.2404,0.2437,0.2465,0.2494,0.2516,0.2546,0.2565,0.2579,0.2564,0.2573,0.2615,0.263,0.2689,0.262,0.2672,0.2674,0.2726,0.2855,0.2924,0.3059,0.2794,0.2796,0.2798,0,0.2287,0.2314,0.2344,0.2396,0.2406,0.2424,0.2475,0.2504,0.2561,0.2584,0.2626,0.2632,0.2695,0.2664,0.2759,0.2717,0.2751,0.2771,0.2776,0.2795,0.2759,0.2939,0.3094,0.3066,0.2818,0.2817,0.2815,0,0.2242,0.2297,0.2319,0.2337,0.2396,0.2415,0.2447,0.2507,0.2538,0.261,0.2643,0.2707,0.2736,0.2793,0.2844,0.2807,0.2952,0.2899,0.2994,0.2999,0.3048,0.3054,0.3186,0.2982,0.2981,0.2981,0.298,0,0.2218,0.2229,0.2296,0.2301,0.2329,0.2387,0.2422,0.2469,0.2542,0.2587,0.2654,0.2706,0.2767,0.2848,0.2889,0.3009,0.2995,0.3042,0.3051,0.3093,0.31,0.3065,0.2975,0.2986,0.2985,0.2984,0.2983,0,0.2149,0.2197,0.2218,0.2282,0.2303,0.2318,0.2395,0.2428,0.2508,0.2573,0.26,0.2719,0.2845,0.2926,0.3032,0.3073,0.3123,0.3207,0.3267,0.3282,0.3336,0.3248,0.317,0.3073,0.335,0.3353,0.3355,0,0.2113,0.212,0.2186,0.2201,0.2223,0.2264,0.2299,0.2393,0.2439,0.258,0.2612,0.2759,0.2869,0.3088,0.3221,0.3367,0.3215,0.3484,0.3423,0.3394,0.3303,0.3076,0.298,0.3547,0.3551,0.3553,0.3556,0,0.2038,0.2065,0.2086,0.2124,0.2157,0.2205,0.2263,0.2301,0.2419,0.2504,0.263,0.2735,0.2991,0.3204,0.3418,0.3505,0.3375,0.3547,0.3504,0.3475,0.3247,0.3141,0.3396,0.3581,0.3579,0.3577,0.3575,0.3574,0.1973,0.1977,0.2015,0.2047,0.2087,0.2141,0.2169,0.2263,0.2357,0.2488,0.26,0.2772,0.3121,0.3462,0.3569,0.3795,0.3533,0.3765,0.3669,0.3446,0.3326,0.3652,0.3841,0.384,0.384,0.3839,0.3838,0,0.1893,0.1919,0.1942,0.1985,0.2003,0.2057,0.2141,0.2179,0.2287,0.2462,0.2586,0.2933,0.3274,0.3573,0.3952,0.3943,0.3756,0.3847,0.3566,0.3466,0.3814,0.3803,0.4008,0.4008,0.4008,0.4008,0.4008,0.4008,0.1854,0.1851,0.1879,0.1893,0.1925,0.1952,0.1996,0.2086,0.2213,0.243,0.2623,0.2792,0.3243,0.3769,0.4022,0.399,0.368,0.358,0.3388,0.3707,0.3691,0.3675,0.365,0.3821,0.382,0.3016,0.301,0.3006]},{"header":{"parameterUnit":"m.s-1","parameterCategory":2,"la1":30.2991,"la2":30.254,"lo1":-89.0895,"lo2":-89.0444,"dy":0.0017,"dx":0.0017,"nx":28,"ny":28,"refTime":"2024-10-12T09:00:00:Z","depth":"0","parameterNumber":3,"parameterNumberName":"V-component_of_CURRENTS"},"data":[0,0,0,0,0,0,0,0,0,0,0,0,0,0,0,0,0,0,0,0,0,0,0,0,0,0,0,0,0,0,0,0,0,0,0,0,0,0,0,0,0,0,0,0,0,0,0,0,0,0,0,0,0,0,0,0,0,0,-0.1096,-0.1096,0,-0.115,-0.1151,-0.1152,-0.1215,-0.1216,-0.1217,-0.1217,-0.1318,-0.132,-0.1322,0,0,0,0,0,0,0,0,0,0,0,0,0,-0.1049,-0.105,-0.1095,-0.1096,-0.1097,-0.115,-0.1151,-0.1152,-0.1215,-0.1216,-0.1217,-0.1218,-0.1317,-0.132,-0.1322,0,0,0,0,0,0,0,0,0,0,0,0,0,-0.1083,-0.105,-0.1095,-0.1134,-0.1138,-0.115,-0.1151,-0.1152,-0.1214,-0.1216,-0.1217,-0.1218,-0.1317,-0.1319,-0.1322,-0.1312,0,0,-0.1331,-0.1332,0,0,0,0,0,0,0,0,-0.1081,-0.1085,-0.1128,-0.1131,-0.1136,-0.1177,-0.1172,-0.1208,-0.1214,-0.1186,-0.1217,-0.1219,-0.1274,-0.128,-0.1287,-0.1317,-0.1321,-0.1331,-0.1332,-0.1334,-0.1334,0,0,0,0,0,0,0,-0.1079,-0.1083,-0.1118,-0.1128,-0.1133,-0.115,-0.1157,-0.1179,-0.1223,-0.1188,-0.1193,-0.1198,-0.1277,-0.1285,-0.129,-0.1323,-0.1331,-0.1333,-0.1335,-0.1336,-0.1369,-0.1368,0,0,0,0,0,0,-0.107,-0.1081,-0.1116,-0.1119,-0.1111,-0.115,-0.1157,-0.1163,-0.1222,-0.1231,-0.1197,-0.1201,-0.1279,-0.1287,-0.1294,-0.1274,-0.1334,-0.1336,-0.1338,-0.137,-0.1369,-0.1368,0,0,0,0,0,0,-0.1068,-0.1072,-0.1114,-0.1101,-0.1107,-0.1149,-0.1155,-0.1163,-0.1172,-0.1227,-0.1239,-0.1197,-0.1281,-0.129,-0.1306,-0.1279,-0.1337,-0.134,-0.137,-0.1369,-0.1368,-0.1241,0,0,0,0,0,0,-0.1067,-0.1071,-0.1068,-0.11,-0.1108,-0.1111,-0.1154,-0.1163,-0.1173,-0.1178,-0.1231,-0.1242,-0.1282,-0.1302,-0.1309,-0.1284,-0.1342,-0.1371,-0.137,-0.1369,-0.1246,-0.1236,-0.1227,0,0,0,0,0,-0.1065,-0.1051,-0.1067,-0.1072,-0.1103,-0.111,-0.1114,-0.115,-0.1171,-0.1164,-0.1201,-0.1241,-0.1298,-0.1303,-0.1312,-0.1287,-0.1372,-0.137,-0.1369,-0.1251,-0.1238,-0.1227,0,0,0,0,0,0,-0.1025,-0.1057,-0.1076,-0.1072,-0.1086,-0.112,-0.1115,-0.1139,-0.1162,-0.1168,-0.1225,-0.1237,-0.124,-0.1283,-0.1287,-0.1295,-0.1344,-0.1344,-0.1251,-0.1239,-0.123,-0.1211,-0.1344,0,0,0,0,0,-0.1014,-0.1014,-0.1046,-0.1038,-0.1044,-0.1077,-0.1084,-0.1105,-0.1131,-0.1143,-0.1178,-0.1217,-0.1238,-0.1255,-0.1282,-0.1282,-0.1308,-0.1276,-0.1266,-0.1257,-0.1249,-0.1259,-0.1249,-0.1362,-0.1362,-0.1362,0,0,-0.0994,-0.1011,-0.101,-0.1029,-0.1044,-0.1037,-0.1084,-0.1084,-0.1075,-0.1149,-0.1144,-0.1178,-0.123,-0.1229,-0.1235,-0.1263,-0.1237,-0.1255,-0.1247,-0.1244,-0.1256,-0.1245,-0.1235,-0.1361,-0.1361,-0.1361,0,0,-0.0948,-0.097,-0.0955,-0.0964,-0.0981,-0.0998,-0.0994,-0.1021,-0.1032,-0.1031,-0.1078,-0.1093,-0.1133,-0.1157,-0.1177,-0.113,-0.118,-0.1147,-0.1083,-0.1092,-0.1082,-0.1074,-0.1076,-0.1069,-0.1146,-0.1146,-0.1145,0,-0.0922,-0.0914,-0.0947,-0.0935,-0.0935,-0.0976,-0.0955,-0.0963,-0.099,-0.099,-0.1016,-0.1054,-0.1095,-0.1091,-0.1078,-0.1105,-0.112,-0.1118,-0.1076,-0.1069,-0.1063,-0.1067,-0.1061,-0.1139,-0.114,-0.1141,-0.1141,0,-0.0872,-0.0863,-0.0851,-0.0853,-0.0854,-0.084,-0.0861,-0.0857,-0.0875,-0.0891,-0.0888,-0.0934,-0.0965,-0.0973,-0.1011,-0.0988,-0.1015,-0.1055,-0.1098,-0.1043,-0.1052,-0.1048,-0.113,-0.1132,-0.1134,-0.1136,0,0,-0.0821,-0.0816,-0.0812,-0.0798,-0.0811,-0.0803,-0.0783,-0.0778,-0.0763,-0.0782,-0.0763,-0.0791,-0.0825,-0.085,-0.0895,-0.0899,-0.0863,-0.0953,-0.0956,-0.094,-0.0873,-0.0892,-0.0891,-0.0895,-0.0894,-0.0893,-0.089,0,-0.0771,-0.0729,-0.0744,-0.0695,-0.0677,-0.0703,-0.0682,-0.0684,-0.0694,-0.0684,-0.0719,-0.0725,-0.0776,-0.0789,-0.0796,-0.0853,-0.085,-0.086,-0.0943,-0.0945,-0.0957,-0.0886,-0.0856,-0.0851,-0.0886,-0.0886,-0.0885,0,-0.0723,-0.0701,-0.0652,-0.0623,-0.0617,-0.0596,-0.0576,-0.0562,-0.0566,-0.0576,-0.0587,-0.0627,-0.0637,-0.0692,-0.0735,-0.074,-0.0792,-0.083,-0.0832,-0.0893,-0.0957,-0.0918,-0.0843,-0.0935,-0.088,-0.088,-0.0881,0,-0.0679,-0.0636,-0.0593,-0.0585,-0.0562,-0.0542,-0.0529,-0.0529,-0.0512,-0.0513,-0.0506,-0.0532,-0.0549,-0.0603,-0.0691,-0.0713,-0.0737,-0.0787,-0.0843,-0.0846,-0.086,-0.0865,-0.0872,-0.0803,-0.0803,-0.0803,-0.0803,0,-0.0629,-0.0591,-0.0567,-0.0544,-0.0489,-0.0494,-0.0447,-0.0442,-0.0432,-0.0404,-0.0451,-0.0438,-0.0528,-0.0565,-0.0648,-0.0723,-0.0707,-0.081,-0.0839,-0.0815,-0.0816,-0.0932,-0.1041,-0.0803,-0.0803,-0.0803,-0.0803,0,-0.059,-0.0577,-0.0523,-0.0484,-0.047,-0.0433,-0.0398,-0.0366,-0.0366,-0.0332,-0.033,-0.036,-0.0406,-0.0494,-0.0582,-0.0667,-0.0815,-0.0777,-0.0737,-0.0761,-0.0911,-0.1016,-0.1105,-0.1197,-0.0831,-0.0831,-0.0832,0,-0.0567,-0.0537,-0.0482,-0.0446,-0.0426,-0.038,-0.035,-0.0337,-0.031,-0.0284,-0.0263,-0.0289,-0.0297,-0.0421,-0.0568,-0.069,-0.0821,-0.0762,-0.0802,-0.0891,-0.103,-0.1096,-0.1172,-0.0764,-0.0763,-0.0763,-0.0763,0,-0.0517,-0.0502,-0.0458,-0.0392,-0.0348,-0.0297,-0.0255,-0.0227,-0.0211,-0.0176,-0.014,-0.0135,-0.0255,-0.0339,-0.0512,-0.0632,-0.0862,-0.0763,-0.0861,-0.0975,-0.1043,-0.1153,-0.0796,-0.0761,-0.0761,-0.0761,-0.0761,-0.0761,-0.0481,-0.0439,-0.0385,-0.032,-0.027,-0.0212,-0.016,-0.0119,-0.0061,0.0025,-0.0015,0.0074,-0.0079,-0.0306,-0.0526,-0.0812,-0.0882,-0.0883,-0.0999,-0.1052,-0.1152,-0.0788,-0.0791,-0.0791,-0.0792,-0.0792,-0.0792,0,-0.0424,-0.0377,-0.0313,-0.023,-0.0163,-0.0157,-0.0089,-0.0025,0.0061,0.0168,0.0225,0.03,0.0072,-0.0194,-0.0572,-0.0909,-0.109,-0.1109,-0.1184,-0.1253,-0.0906,-0.0913,-0.0936,-0.0936,-0.0936,-0.0936,-0.0936,-0.0935,-0.0384,-0.0313,-0.0279,-0.015,-0.0093,0.0001,0.0045,0.014,0.024,0.0456,0.0618,0.0708,0.0701,-0.0155,-0.0766,-0.1036,-0.135,-0.145,-0.1604,-0.1344,-0.133,-0.1318,-0.1343,-0.1456,-0.1457,-0.1873,-0.1877,-0.188]}],[{"header":{"parameterUnit":"m.s-1","parameterCategory":2,"la1":30.2991,"la2":30.254,"lo1":-89.0895,"lo2":-89.0444,"dy":0.0017,"dx":0.0017,"nx":28,"ny":28,"refTime":"2024-10-12T09:00:00:Z","depth":"2","parameterNumber":2,"parameterNumberName":"U-component_of_CURRENTS"},"data":[0,0,0,0,0,0,0,0,0,0,0,0,0,0,0,0,0,0,0,0,0,0,0,0,0,0,0,0,0,0,0,0,0,0,0,0,0,0,0,0,0,0,0,0,0,0,0,0,0,0,0,0,0,0,0,0,0,0,0.1101,0.1102,0,0.1143,0.1143,0.1143,0.1159,0.1159,0.1159,0.1159,0.1199,0.12,0.1201,0,0,0,0,0,0,0,0,0,0,0,0,0,0.1041,0.1042,0.1101,0.1102,0.1102,0.1143,0.1143,0.1143,0.1159,0.1159,0.1159,0.1159,0.1199,0.12,0.1201,0,0,0,0,0,0,0,0,0,0,0,0,0,0.1072,0.1042,0.1101,0.1116,0.1118,0.1142,0.1143,0.1144,0.1159,0.1159,0.1159,0.1159,0.1198,0.12,0.1202,0.1212,0,0,0.1207,0.1207,0,0,0,0,0,0,0,0,0.107,0.1074,0.1113,0.1115,0.1117,0.1147,0.1137,0.1167,0.1159,0.1142,0.1159,0.1159,0.1182,0.1185,0.1192,0.1214,0.1216,0.1207,0.1208,0.1208,0.1209,0,0,0,0,0,0,0,0.1068,0.1073,0.1116,0.1114,0.1116,0.1122,0.1127,0.1142,0.1161,0.1144,0.1145,0.1152,0.1183,0.119,0.1193,0.1217,0.1207,0.1208,0.1209,0.121,0.1274,0.1275,0,0,0,0,0,0,0.1065,0.1071,0.1115,0.1118,0.1094,0.1124,0.1128,0.1136,0.1161,0.1165,0.1152,0.1152,0.1187,0.1191,0.1194,0.1246,0.1208,0.121,0.1211,0.1274,0.1274,0.1275,0,0,0,0,0,0,0.1064,0.1069,0.1114,0.1096,0.1102,0.1125,0.1134,0.1137,0.1152,0.1167,0.1171,0.1164,0.1187,0.1192,0.1218,0.1246,0.1211,0.1212,0.1273,0.1274,0.1275,0.1325,0,0,0,0,0,0,0.1062,0.1068,0.1077,0.1096,0.1103,0.1137,0.1134,0.1138,0.1156,0.1158,0.1179,0.1182,0.1188,0.1215,0.1219,0.1248,0.1213,0.1272,0.1273,0.1274,0.1323,0.1328,0.1332,0,0,0,0,0,0.106,0.1068,0.1077,0.1083,0.1113,0.1138,0.1143,0.1157,0.1157,0.1169,0.1182,0.1182,0.1227,0.1217,0.1222,0.1251,0.1271,0.1273,0.1274,0.132,0.1327,0.1332,0,0,0,0,0,0,0.1044,0.1071,0.1081,0.1098,0.1122,0.1141,0.1154,0.1163,0.1182,0.1185,0.1193,0.1198,0.1232,0.123,0.1219,0.1272,0.1248,0.1251,0.1282,0.1288,0.1293,0.1319,0.1215,0,0,0,0,0,0.1046,0.106,0.1088,0.1102,0.1116,0.1137,0.1149,0.1162,0.118,0.1189,0.1204,0.122,0.1241,0.1255,0.127,0.1299,0.132,0.1319,0.1324,0.1328,0.1352,0.1394,0.1406,0.1281,0.1281,0.1281,0,0,0.1042,0.106,0.1067,0.11,0.1119,0.1147,0.1144,0.1169,0.1197,0.119,0.123,0.1239,0.1252,0.1287,0.1302,0.1291,0.1376,0.1331,0.1334,0.1356,0.1397,0.141,0.1421,0.1282,0.1282,0.1281,0,0,0.1042,0.1061,0.1076,0.1101,0.1136,0.1156,0.1165,0.1196,0.1215,0.1249,0.1255,0.1285,0.1308,0.1334,0.1346,0.1386,0.1399,0.1384,0.1436,0.1476,0.1487,0.1497,0.1546,0.156,0.1388,0.1388,0.1388,0,0.1038,0.1066,0.1084,0.1111,0.1138,0.1162,0.1193,0.1217,0.1253,0.1282,0.1267,0.1333,0.1336,0.1399,0.1411,0.1401,0.1427,0.1413,0.1485,0.1495,0.1505,0.1551,0.1566,0.139,0.139,0.139,0.1389,0,0.1053,0.1083,0.1095,0.1141,0.1171,0.1201,0.1242,0.1277,0.13,0.1329,0.1393,0.1404,0.145,0.1449,0.1444,0.1518,0.1516,0.1486,0.1474,0.1521,0.1566,0.1581,0.1394,0.1393,0.1392,0.1392,0,0,0.1034,0.1093,0.1102,0.1135,0.1194,0.1221,0.1278,0.1344,0.1391,0.1426,0.1492,0.1528,0.1546,0.1561,0.1564,0.1596,0.1677,0.1575,0.1576,0.1631,0.1783,0.1772,0.1787,0.1661,0.1663,0.1665,0.1791,0,0.1048,0.1098,0.1131,0.1192,0.1228,0.1279,0.1332,0.1394,0.1442,0.1508,0.1548,0.1605,0.1585,0.1613,0.1648,0.167,0.1718,0.1647,0.1723,0.1726,0.1717,0.1804,0.1543,0.1632,0.1805,0.1807,0.1809,0,0.1063,0.1098,0.1154,0.1235,0.1256,0.13,0.1403,0.1454,0.1552,0.1588,0.1661,0.1692,0.1774,0.1729,0.1827,0.1785,0.1802,0.1809,0.1813,0.18,0.1743,0.1611,0.1652,0.1834,0.1832,0.183,0.1828,0,0.1051,0.1123,0.117,0.1196,0.1283,0.1332,0.1389,0.1485,0.1537,0.1653,0.1701,0.1795,0.1848,0.1891,0.1928,0.1885,0.2023,0.1957,0.1972,0.1971,0.1765,0.1742,0.2035,0.2035,0.2035,0.2034,0.2034,0,0.1061,0.1103,0.1171,0.1198,0.1268,0.1336,0.1421,0.1491,0.1588,0.1663,0.1747,0.1817,0.189,0.1972,0.1983,0.2048,0.2078,0.202,0.2015,0.1775,0.1753,0.1929,0.1914,0.2039,0.2038,0.2037,0.2036,0,0.1048,0.109,0.1147,0.1234,0.1264,0.1319,0.1423,0.148,0.1583,0.1685,0.1729,0.1859,0.1985,0.2061,0.2146,0.2124,0.2174,0.2183,0.1912,0.1874,0.2078,0.2065,0.2217,0.2218,0.2218,0.2219,0.222,0,0.1049,0.1076,0.1156,0.1185,0.1229,0.1309,0.1361,0.1466,0.1526,0.1703,0.1748,0.1916,0.2,0.2148,0.2119,0.217,0.2252,0.201,0.188,0.2124,0.2104,0.2089,0.2076,0.1621,0.1617,0.1614,0.1611,0,0.105,0.1076,0.1115,0.1169,0.1223,0.1275,0.1362,0.1395,0.1533,0.1614,0.1742,0.1824,0.1953,0.1904,0.1997,0.1972,0.1979,0.1942,0.2273,0.1626,0.1576,0.1552,0.1555,0.1579,0.1582,0.1584,0.1586,0.1587,0.1047,0.1065,0.1107,0.1158,0.1202,0.1235,0.1253,0.133,0.1398,0.148,0.1619,0.1652,0.1692,0.1668,0.1696,0.1709,0.1807,0.1734,0.1739,0.1749,0.1668,0.1623,0.162,0.1623,0.1626,0.1629,0.1631,0,0.104,0.1062,0.1097,0.1138,0.1146,0.1195,0.1243,0.1223,0.1255,0.1315,0.1377,0.1259,0.1249,0.1365,0.1288,0.1331,0.1239,0.1352,0.1201,0.123,0.1257,0.1147,0.0964,0.0963,0.0962,0.0962,0,0,0.1041,0.1057,0.107,0.1072,0.1093,0.1071,0.1074,0.1044,0.1041,0.1004,0.0983,0.1023,0.1163,0.0982,0.1012,0.0997,0.1092,0.0948,0.1455,0.1291,0.1317,0.1428,0.1287,0,0,0,0,0]},{"header":{"parameterUnit":"m.s-1","parameterCategory":2,"la1":30.2991,"la2":30.254,"lo1":-89.0895,"lo2":-89.0444,"dy":0.0017,"dx":0.0017,"nx":28,"ny":28,"refTime":"2024-10-12T09:00:00:Z","depth":"2","parameterNumber":3,"parameterNumberName":"V-component_of_CURRENTS"},"data":[0,0,0,0,0,0,0,0,0,0,0,0,0,0,0,0,0,0,0,0,0,0,0,0,0,0,0,0,0,0,0,0,0,0,0,0,0,0,0,0,0,0,0,0,0,0,0,0,0,0,0,0,0,0,0,0,0,0,0.0324,0.0323,0,0.0224,0.0223,0.0222,0.0163,0.0162,0.0162,0.0162,0.0083,0.0081,0.0079,0,0,0,0,0,0,0,0,0,0,0,0,0,0.0426,0.0424,0.0324,0.0323,0.0322,0.0224,0.0223,0.0221,0.0163,0.0162,0.0162,0.0162,0.0084,0.0081,0.0079,0,0,0,0,0,0,0,0,0,0,0,0,0,0.0359,0.0424,0.0324,0.0281,0.0276,0.0224,0.0223,0.0221,0.0163,0.0162,0.0162,0.0162,0.0084,0.0082,0.0079,0.0068,0,0,0.007,0.0069,0,0,0,0,0,0,0,0,0.0363,0.0355,0.0288,0.0284,0.0278,0.0206,0.0229,0.0171,0.0163,0.0205,0.0162,0.0162,0.0127,0.012,0.0101,0.0064,0.0061,0.007,0.0068,0.0067,0.0066,0,0,0,0,0,0,0,0.0368,0.0359,0.0284,0.0287,0.0281,0.0253,0.0244,0.0218,0.0169,0.0202,0.0197,0.0187,0.0124,0.0104,0.0099,0.006,0.007,0.0068,0.0066,0.0065,-0.0006,-0.0006,0,0,0,0,0,0,0.0383,0.0364,0.0287,0.0281,0.0321,0.0252,0.0241,0.0229,0.0169,0.0159,0.0187,0.0184,0.0109,0.0102,0.0096,0.0098,0.0067,0.0064,0.0063,-0.0006,-0.0006,-0.0006,0,0,0,0,0,0,0.0385,0.0377,0.0291,0.032,0.0308,0.0251,0.0237,0.0227,0.0211,0.0158,0.0148,0.0181,0.0109,0.01,0.0068,0.0094,0.0063,0.0061,-0.0006,-0.0006,-0.0006,0.009,0,0,0,0,0,0,0.0389,0.0378,0.0383,0.0321,0.0307,0.0276,0.0237,0.0225,0.0205,0.02,0.015,0.0142,0.0108,0.0072,0.0065,0.0089,0.0058,-0.0006,-0.0006,-0.0006,0.0087,0.0093,0.0098,0,0,0,0,0,0.0393,0.0403,0.0384,0.0375,0.0312,0.0277,0.0268,0.0225,0.0205,0.0207,0.0159,0.0143,0.0065,0.007,0.0061,0.0086,-0.0005,-0.0006,-0.0006,0.0085,0.0092,0.0098,0,0,0,0,0,0,0.0455,0.0396,0.0374,0.0368,0.0332,0.0268,0.0269,0.0233,0.0196,0.0195,0.0139,0.0127,0.011,0.0076,0.0083,0.006,0.0029,0.0027,0.0101,0.0107,0.0113,0.0132,0.0056,0,0,0,0,0,0.0471,0.0461,0.0402,0.04,0.0387,0.0329,0.0311,0.0282,0.0236,0.022,0.0181,0.0137,0.0101,0.0087,0.0052,0.0042,-0.0002,0.0049,0.0055,0.006,0.0067,0.0006,0.0007,-0.0008,-0.0008,-0.0008,0,0,0.0494,0.0462,0.0457,0.0413,0.0383,0.0369,0.0318,0.0302,0.0292,0.0219,0.0203,0.0159,0.01,0.0085,0.0075,0.0062,0.0042,0.006,0.0065,0.0069,0.0006,0.0007,0.0009,-0.0008,-0.0008,-0.0008,0,0,0.0533,0.0511,0.0511,0.0487,0.0448,0.0414,0.0413,0.0357,0.0338,0.0312,0.0254,0.022,0.0172,0.0132,0.0105,0.0118,0.0072,0.0111,0.0162,0.0103,0.0104,0.0104,0.0062,0.0058,0.0117,0.0117,0.0117,0,0.0564,0.0551,0.051,0.0504,0.0491,0.0438,0.0438,0.0412,0.0354,0.0341,0.0324,0.0236,0.0195,0.0158,0.0163,0.0136,0.0094,0.0148,0.0112,0.0112,0.011,0.0067,0.0061,0.0122,0.0121,0.0121,0.012,0,0.0589,0.0586,0.0591,0.0562,0.0549,0.0546,0.0502,0.0493,0.0466,0.0429,0.0396,0.0328,0.0276,0.026,0.0218,0.0192,0.0163,0.0128,0.0103,0.0118,0.0071,0.0063,0.0128,0.0127,0.0125,0.0124,0,0,0.0633,0.061,0.0613,0.0615,0.058,0.0573,0.0571,0.0545,0.0545,0.0498,0.0483,0.0422,0.0383,0.0348,0.029,0.0243,0.0206,0.0192,0.0187,0.0166,0.0084,0.0049,0.0036,0.0163,0.0162,0.0161,0.0059,0,0.0663,0.0673,0.0649,0.067,0.0673,0.0638,0.0642,0.0618,0.059,0.0568,0.0501,0.047,0.0416,0.0397,0.0341,0.0228,0.0188,0.0238,0.0059,0.0054,0.0033,0.0027,0.0028,-0.0064,0.0051,0.005,0.0049,0,0.0689,0.0692,0.0717,0.0724,0.0724,0.0736,0.0735,0.0731,0.069,0.0665,0.0618,0.0558,0.0484,0.0441,0.0274,0.0305,0.0213,0.0131,0.0124,0.0052,0.0004,-0.0066,-0.0083,0.0035,0.0036,0.0037,0.0038,0,0.0736,0.0742,0.0769,0.0768,0.0766,0.0786,0.0792,0.077,0.0771,0.0731,0.0723,0.0617,0.0569,0.0431,0.0267,0.0267,0.008,0.0053,-0.006,-0.0063,-0.0117,-0.0123,-0.0047,-0.0046,-0.0046,-0.0046,-0.0046,0,0.0771,0.0796,0.0802,0.0818,0.0866,0.0849,0.0893,0.0879,0.086,0.0869,0.0785,0.0758,0.0563,0.0434,0.0283,0.0082,0.0088,-0.0051,-0.0096,-0.0083,-0.0085,-0.0046,-0.0045,-0.005,-0.0049,-0.0048,-0.0048,0,0.0821,0.0819,0.0858,0.0877,0.0891,0.0934,0.0966,0.099,0.0968,0.0975,0.0967,0.0847,0.0682,0.0483,0.0249,0.0108,-0.0082,-0.0145,-0.0107,-0.0146,-0.0185,-0.0177,-0.0285,-0.0287,-0.0289,-0.029,-0.0292,0,0.0845,0.0871,0.0912,0.0944,0.0963,0.1018,0.1056,0.1051,0.1073,0.1029,0.1035,0.0893,0.0793,0.0436,0.016,-0.0114,-0.0116,-0.0275,-0.0276,-0.0179,-0.0212,-0.0201,-0.0191,-0.0306,-0.0308,-0.0309,-0.0309,0,0.0895,0.0915,0.0942,0.1008,0.1063,0.1121,0.1175,0.12,0.1195,0.1185,0.1144,0.1062,0.0744,0.0427,0.006,-0.0108,-0.0238,-0.0306,-0.0237,-0.024,-0.0207,-0.0236,-0.0224,-0.0319,-0.0318,-0.0317,-0.0317,-0.0317,0.0932,0.0967,0.1002,0.1071,0.1135,0.121,0.1267,0.1298,0.1325,0.1278,0.1203,0.1021,0.0688,0.0154,-0.0083,-0.0314,-0.03,-0.0405,-0.0399,-0.0392,-0.0371,-0.0342,-0.0475,-0.0475,-0.0475,-0.0475,-0.0475,0,0.0957,0.0997,0.106,0.114,0.1218,0.1248,0.1332,0.1354,0.1389,0.1264,0.1191,0.0765,0.0436,0.0119,-0.0237,-0.0449,-0.0431,-0.0503,-0.0445,-0.0435,-0.0427,-0.0404,-0.0519,-0.0519,-0.052,-0.052,0,0,0.0969,0.1023,0.1058,0.1189,0.1259,0.1361,0.1417,0.1422,0.1343,0.1159,0.0971,0.074,0.0369,0.0067,-0.0191,-0.0344,-0.0332,-0.0368,-0.0317,-0.0209,-0.0198,-0.0364,-0.0319,0,0,0,0,0]}],[{"header":{"parameterUnit":"m.s-1","parameterCategory":2,"la1":30.2991,"la2":30.254,"lo1":-89.0895,"lo2":-89.0444,"dy":0.0017,"dx":0.0017,"nx":28,"ny":28,"refTime":"2024-10-12T09:00:00:Z","depth":"4","parameterNumber":2,"parameterNumberName":"U-component_of_CURRENTS"},"data":[0,0,0,0,0,0,0,0,0,0,0,0,0,0,0,0,0,0,0,0,0,0,0,0,0,0,0,0,0,0,0,0,0,0,0,0,0,0,0,0,0,0,0,0,0,0,0,0,0,0,0,0,0,0,0,0,0,0,0.0516,0.0516,0,0.0561,0.0562,0.0562,0.06,0.0601,0.0601,0.0602,0.0648,0.0649,0.0649,0,0,0,0,0,0,0,0,0,0,0,0,0,0.0451,0.0452,0.0516,0.0516,0.0517,0.0561,0.0562,0.0562,0.06,0.0601,0.0601,0.0602,0.0648,0.0649,0.0649,0,0,0,0,0,0,0,0,0,0,0,0,0,0.0485,0.0452,0.0516,0.0542,0.0545,0.0561,0.0562,0.0562,0.06,0.0601,0.0601,0.0602,0.0647,0.0648,0.065,0.0641,0,0,0.0653,0.0653,0,0,0,0,0,0,0,0,0.0483,0.0487,0.0538,0.054,0.0544,0.0577,0.0556,0.0589,0.06,0.0578,0.0602,0.0603,0.0625,0.0628,0.0633,0.0643,0.0645,0.0653,0.0654,0.0654,0.0655,0,0,0,0,0,0,0,0.048,0.0485,0.0532,0.0538,0.0542,0.0548,0.0554,0.0562,0.0595,0.058,0.0583,0.059,0.0626,0.0631,0.0634,0.0645,0.0653,0.0654,0.0655,0.0655,0.0732,0.0734,0,0,0,0,0,0,0.0477,0.0483,0.0531,0.0534,0.0516,0.0549,0.0555,0.0564,0.0595,0.0601,0.0589,0.0591,0.0629,0.0633,0.0636,0.0676,0.0654,0.0655,0.0656,0.0731,0.0733,0.0734,0,0,0,0,0,0,0.0476,0.0481,0.0529,0.051,0.0517,0.055,0.0559,0.0565,0.0588,0.0603,0.0608,0.0609,0.063,0.0634,0.0654,0.0677,0.0656,0.0657,0.0729,0.0731,0.0733,0.0726,0,0,0,0,0,0,0.0474,0.048,0.0492,0.051,0.0518,0.0544,0.0559,0.0565,0.0591,0.0595,0.0621,0.0625,0.0631,0.0652,0.0655,0.0678,0.0658,0.0727,0.073,0.0733,0.0725,0.0728,0.073,0,0,0,0,0,0.0471,0.0479,0.0492,0.0498,0.0531,0.0545,0.0549,0.0574,0.0591,0.0598,0.0618,0.0625,0.0672,0.0653,0.0657,0.068,0.0726,0.0729,0.0732,0.0723,0.0727,0.073,0,0,0,0,0,0,0.0455,0.0484,0.0499,0.0515,0.0533,0.0552,0.0565,0.0581,0.0603,0.0613,0.0627,0.0632,0.0661,0.0674,0.0654,0.0715,0.0707,0.071,0.0699,0.0702,0.0705,0.0698,0.0659,0,0,0,0,0,0.0457,0.0472,0.0497,0.051,0.0522,0.0547,0.056,0.0576,0.0595,0.0606,0.0629,0.0657,0.0673,0.069,0.0705,0.073,0.0728,0.0755,0.0758,0.076,0.0759,0.0758,0.0759,0.0744,0.0744,0.0744,0,0,0.0454,0.0472,0.0482,0.0508,0.0527,0.0542,0.0557,0.0579,0.0594,0.0607,0.0643,0.0661,0.0681,0.0709,0.0725,0.0724,0.0767,0.0764,0.0765,0.0763,0.0761,0.0762,0.0763,0.0746,0.0746,0.0746,0,0,0.0451,0.0475,0.0487,0.0503,0.0533,0.0546,0.0556,0.0588,0.0608,0.0636,0.0652,0.0677,0.0718,0.0729,0.0739,0.0768,0.0776,0.0796,0.0808,0.0807,0.0807,0.0807,0.0813,0.0814,0.0804,0.0804,0.0804,0,0.0448,0.0469,0.0491,0.0507,0.0525,0.055,0.0567,0.0583,0.0619,0.064,0.0651,0.0711,0.0722,0.0747,0.0763,0.0771,0.078,0.0787,0.0807,0.0807,0.0807,0.0813,0.0814,0.0804,0.0804,0.0804,0.0804,0,0.0453,0.0475,0.0484,0.0515,0.0532,0.055,0.0576,0.0603,0.0635,0.0659,0.0702,0.0715,0.0754,0.0768,0.0773,0.0797,0.0806,0.08,0.0789,0.0808,0.0814,0.0814,0.0804,0.0804,0.0804,0.0804,0,0,0.0433,0.0479,0.0485,0.0506,0.0541,0.0556,0.0583,0.0619,0.0648,0.0684,0.0721,0.0748,0.0772,0.0786,0.08,0.0803,0.0809,0.0813,0.0812,0.0802,0.082,0.0793,0.0791,0.0811,0.0811,0.0811,0.0825,0,0.0434,0.0465,0.0488,0.052,0.054,0.0573,0.0599,0.0634,0.0669,0.0711,0.0732,0.077,0.0774,0.0799,0.0801,0.0807,0.0812,0.0807,0.0818,0.0818,0.0777,0.0791,0.0812,0.0825,0.0825,0.0825,0.0826,0,0.0433,0.0457,0.0489,0.0537,0.0551,0.0577,0.0631,0.0657,0.0709,0.0739,0.0776,0.0797,0.0816,0.0812,0.0821,0.0824,0.0826,0.0824,0.0824,0.0799,0.0792,0.0804,0.0827,0.0827,0.0827,0.0827,0.0827,0,0.041,0.0457,0.0486,0.0502,0.0556,0.0589,0.0626,0.0679,0.0711,0.0764,0.0793,0.0816,0.084,0.0835,0.0836,0.0836,0.0838,0.0832,0.0808,0.0807,0.0828,0.0828,0.0833,0.0833,0.0833,0.0833,0.0833,0,0.04,0.0423,0.0487,0.0503,0.0549,0.0595,0.065,0.0686,0.0744,0.0773,0.0814,0.0822,0.0849,0.0854,0.0843,0.0828,0.0843,0.0809,0.0805,0.0829,0.0828,0.0829,0.0828,0.0834,0.0833,0.0833,0.0833,0,0.0368,0.0408,0.0442,0.0511,0.054,0.0577,0.0665,0.0696,0.0758,0.0793,0.0811,0.0844,0.0842,0.0858,0.0853,0.0841,0.0822,0.0814,0.0847,0.0844,0.0792,0.0791,0.0787,0.0786,0.0785,0.0785,0.0784,0,0.0356,0.0371,0.0441,0.047,0.0508,0.0577,0.0617,0.0694,0.0717,0.0782,0.0778,0.0815,0.0825,0.0799,0.0813,0.0807,0.08,0.0806,0.079,0.079,0.0786,0.0787,0.0787,0.0783,0.0782,0.0782,0.0782,0,0.0324,0.0351,0.0379,0.0438,0.0489,0.0535,0.0598,0.0616,0.0686,0.0743,0.074,0.0755,0.0762,0.0759,0.0779,0.0762,0.0806,0.0797,0.0799,0.0784,0.0784,0.0782,0.0783,0.0779,0.078,0.078,0.078,0,0.0299,0.0307,0.0349,0.0399,0.0458,0.0487,0.0525,0.0559,0.0599,0.0673,0.0657,0.0693,0.0732,0.0734,0.0727,0.0738,0.0731,0.0724,0.0729,0.0733,0.0711,0.0703,0.0668,0,0,0,0,0,0.0275,0.028,0.0312,0.0358,0.0414,0.0449,0.0506,0.0538,0.0602,0.0588,0.0633,0.0629,0.0653,0.0661,0.0661,0.0703,0.073,0.0702,0.0723,0.0764,0.0767,0.0748,0,0,0,0,0,0,0.0256,0.0278,0.029,0.0323,0.035,0.0397,0.0433,0.0467,0.0465,0.0533,0.0535,0.0605,0.0617,0.064,0.0647,0.0657,0.0665,0.0735,0.0734,0.0762,0.0765,0.0768,0.0749,0,0,0,0,0]},{"header":{"parameterUnit":"m.s-1","parameterCategory":2,"la1":30.2991,"la2":30.254,"lo1":-89.0895,"lo2":-89.0444,"dy":0.0017,"dx":0.0017,"nx":28,"ny":28,"refTime":"2024-10-12T09:00:00:Z","depth":"4","parameterNumber":3,"parameterNumberName":"V-component_of_CURRENTS"},"data":[0,0,0,0,0,0,0,0,0,0,0,0,0,0,0,0,0,0,0,0,0,0,0,0,0,0,0,0,0,0,0,0,0,0,0,0,0,0,0,0,0,0,0,0,0,0,0,0,0,0,0,0,0,0,0,0,0,0,0.0072,0.0071,0,0.0057,0.0056,0.0056,0.007,0.007,0.0071,0.0071,0.0037,0.0036,0.0034,0,0,0,0,0,0,0,0,0,0,0,0,0,0.0093,0.0092,0.0072,0.0071,0.0071,0.0057,0.0056,0.0056,0.0069,0.007,0.0071,0.0072,0.0037,0.0036,0.0034,0,0,0,0,0,0,0,0,0,0,0,0,0,0.0081,0.0092,0.0072,0.0077,0.0077,0.0057,0.0056,0.0056,0.0069,0.007,0.0071,0.0072,0.0038,0.0036,0.0034,0.0002,0,0,0.0027,0.0026,0,0,0,0,0,0,0,0,0.0082,0.008,0.0076,0.0076,0.0077,0.0066,0.0051,0.0037,0.0069,0.0072,0.0071,0.0072,0.0045,0.0042,0.0037,0.0001,-0.0001,0.0027,0.0025,0.0025,0.0024,0,0,0,0,0,0,0,0.0082,0.0081,0.0065,0.0076,0.0076,0.0073,0.0072,0.0049,0.0053,0.0072,0.0073,0.0071,0.0045,0.0039,0.0036,-0.0001,0.0027,0.0025,0.0024,0.0023,-0.0078,-0.008,0,0,0,0,0,0,0.0085,0.0081,0.0066,0.0065,0.0082,0.0072,0.0071,0.0068,0.0053,0.0052,0.0071,0.0072,0.0042,0.0039,0.0035,-0.0022,0.0025,0.0023,0.0021,-0.0077,-0.0079,-0.008,0,0,0,0,0,0,0.0086,0.0084,0.0066,0.0073,0.0071,0.0071,0.0067,0.0068,0.0064,0.0053,0.0052,0.0067,0.0043,0.0038,0.0016,-0.0022,0.0022,0.002,-0.0075,-0.0078,-0.0079,-0.0123,0,0,0,0,0,0,0.0086,0.0084,0.0078,0.0073,0.0071,0.005,0.0066,0.0067,0.0062,0.0063,0.0049,0.0047,0.0043,0.0019,0.0014,-0.0024,0.0018,-0.0074,-0.0076,-0.0079,-0.012,-0.0127,-0.0132,0,0,0,0,0,0.0087,0.0075,0.0078,0.0076,0.0065,0.0049,0.0047,0.005,0.0061,0.0051,0.0048,0.0047,-0.0001,0.0017,0.0011,-0.0029,-0.0072,-0.0076,-0.0079,-0.0118,-0.0126,-0.0132,0,0,0,0,0,0,0.0076,0.0075,0.0079,0.0066,0.0057,0.0052,0.0042,0.0046,0.0036,0.0038,0.0035,0.0032,-0.0003,-0.0009,0.0011,-0.0066,-0.004,-0.0045,-0.0068,-0.0075,-0.0081,-0.0084,0.0016,0,0,0,0,0,0.0072,0.0065,0.0062,0.0049,0.0045,0.0043,0.0037,0.0039,0.0031,0.0028,0.0018,0.0001,-0.0023,-0.004,-0.0058,-0.01,-0.0101,-0.0132,-0.0138,-0.0143,-0.015,-0.0183,-0.0192,-0.009,-0.009,-0.009,0,0,0.0064,0.0062,0.0058,0.0047,0.0041,0.0031,0.0042,0.0028,0.0017,0.0024,-0.0001,-0.0017,-0.0036,-0.0079,-0.0097,-0.0089,-0.0171,-0.0147,-0.0151,-0.0155,-0.0187,-0.0197,-0.0206,-0.0092,-0.0092,-0.0092,0,0,0.0049,0.0043,0.0036,0.0028,0.002,0.0015,0.0012,0.0001,-0.0007,-0.0035,-0.0033,-0.0068,-0.0105,-0.0129,-0.0144,-0.0197,-0.0196,-0.021,-0.0252,-0.0285,-0.0293,-0.0301,-0.0306,-0.0314,-0.0221,-0.0221,-0.0221,0,0.0041,0.0035,0.0029,0.0021,0.0016,0.0009,0.0001,-0.0016,-0.0034,-0.0049,-0.0048,-0.0115,-0.0131,-0.0186,-0.0209,-0.0212,-0.0219,-0.0222,-0.0292,-0.03,-0.0307,-0.031,-0.0318,-0.0223,-0.0223,-0.0223,-0.0222,0,0.0026,0.002,0.0011,0.0004,-0.0008,-0.002,-0.0036,-0.0055,-0.007,-0.009,-0.0145,-0.0176,-0.0216,-0.0238,-0.0244,-0.0311,-0.0295,-0.0289,-0.0272,-0.032,-0.032,-0.0328,-0.0227,-0.0226,-0.0225,-0.0224,0,0,0.0015,0.0006,0.0004,0.0004,-0.0014,-0.0023,-0.0053,-0.0081,-0.0098,-0.0149,-0.0184,-0.0255,-0.0278,-0.0298,-0.0319,-0.0362,-0.042,-0.0357,-0.0357,-0.0358,-0.0478,-0.0412,-0.0413,-0.0429,-0.0431,-0.0432,-0.0455,0,0.0009,0.0003,-0.0006,-0.0018,-0.0022,-0.0038,-0.0062,-0.0094,-0.0125,-0.0165,-0.0228,-0.0272,-0.0299,-0.0325,-0.0378,-0.0401,-0.0443,-0.0413,-0.0435,-0.0435,-0.0368,-0.0422,-0.0438,-0.046,-0.0462,-0.0463,-0.0464,0,0.0001,0.0001,-0.0006,-0.0015,-0.0019,-0.0035,-0.0064,-0.0089,-0.015,-0.0179,-0.0248,-0.0284,-0.0366,-0.0375,-0.0464,-0.0444,-0.0473,-0.0494,-0.0495,-0.0424,-0.0384,-0.0405,-0.0477,-0.0476,-0.0475,-0.0474,-0.0473,0,0.0008,-0.0001,-0.0002,-0.0006,-0.0022,-0.0035,-0.0053,-0.01,-0.0119,-0.0194,-0.0215,-0.0311,-0.0349,-0.042,-0.0459,-0.0475,-0.0529,-0.0548,-0.0516,-0.051,-0.0541,-0.0533,-0.0617,-0.0617,-0.0617,-0.0616,-0.0616,0,0.0008,0.0005,0.0001,-0.0,-0.0007,-0.0029,-0.0051,-0.0081,-0.0127,-0.0146,-0.0228,-0.0251,-0.0365,-0.0401,-0.0457,-0.0491,-0.0526,-0.0533,-0.0522,-0.0557,-0.055,-0.0545,-0.0537,-0.0617,-0.0617,-0.0617,-0.0617,0,0.0009,0.0009,0.0009,0.0,-0.0003,-0.0014,-0.0039,-0.0054,-0.0098,-0.0124,-0.0148,-0.0218,-0.0267,-0.0339,-0.0425,-0.0464,-0.051,-0.0507,-0.051,-0.0497,-0.0479,-0.0473,-0.0516,-0.0514,-0.0512,-0.0511,-0.051,0,0.0008,0.001,0.0014,0.0018,0.0011,-0.0004,-0.001,-0.0045,-0.0052,-0.0088,-0.0091,-0.0144,-0.019,-0.0252,-0.034,-0.0428,-0.0439,-0.0467,-0.0526,-0.0489,-0.0474,-0.047,-0.0466,-0.0507,-0.0507,-0.0507,-0.0506,0,0.0006,0.0008,0.0013,0.0027,0.0027,0.0027,0.0019,0.0021,-0.0006,-0.0033,-0.0039,-0.0093,-0.0132,-0.0221,-0.0263,-0.0334,-0.0462,-0.0451,-0.0457,-0.0513,-0.0479,-0.0465,-0.0463,-0.05,-0.0501,-0.0502,-0.0502,0,0.0003,0.0008,0.0021,0.0033,0.0042,0.0053,0.0045,0.0049,0.0041,0.0015,0.0025,-0.0039,-0.0084,-0.0167,-0.0209,-0.0266,-0.0317,-0.0363,-0.0375,-0.0382,-0.0337,-0.0274,-0.0233,0,0,0,0,0,-0.0,0.001,0.0024,0.0042,0.0056,0.0059,0.0068,0.0062,0.0057,0.0067,0.0044,0.0014,-0.0071,-0.0113,-0.0161,-0.0207,-0.0336,-0.0267,-0.0397,-0.0469,-0.0476,-0.0441,0,0,0,0,0,0,-0.0004,0.0011,0.0025,0.0051,0.0064,0.0077,0.0082,0.0078,0.0084,0.0074,0.0037,0.0004,-0.0074,-0.0034,-0.0159,-0.0179,-0.0269,-0.0311,-0.0312,-0.0466,-0.0472,-0.0477,-0.0443,0,0,0,0,0]}]]